COMPLETED DISPATCHED CALLS FOR SERVICE

Welcome to the Jacksonville Sheriff’s Office Completed Dispatched Calls for Service webpage. This page displays calls for service made to the Jacksonville Sheriff's Office that have recently been completed. The data on this page is refreshed automatically.

This information is not intended to be used as official crime data. This program does not provide information about all crimes, and excludes specific incidents such as sexual assaults and child abuse.

Disclaimer: The Jacksonville Sheriff's Office makes every effort to produce and publish current and accurate information. No warranties, expressed or implied, are provided for the data herein, its use, or its interpretation. The services provided are for informational purposes only and should not be relied on for any type of legal action.

Last refreshed 8/12 04:39:06

Incident # Dispatched Block Address Signal Call Description  
202200467736 8-12 03:22 OLD ST AUGUSTINE RD / N I95EXIT OLDSTAUG RP 1050 TRAFFIC STOP
202200467662 8-12 03:19 7600 ORLANDO AVE 22 DOMESTIC
202200467710 8-12 03:19 PALMDALE ST / MERIVALE RD S 33 DISCHARGING OF FIREARM
202200467724 8-12 03:11 12300 MAIN ST N 63 DISPUTE
202200467689 8-12 03:05 1200 LILA ST 37 UNVERIFIED 911 CALL
202200467722 8-12 02:48 7300 PHILIPS HWY 13 SUSPICIOUS PERSON
202200467714 8-12 02:41 300 RIVERSIDE AVE 13 SUSPICIOUS PERSON
202282015080 8-12 02:40 14000 ATLANTIC BLVD 13 SUSPICIOUS PERSON
202200467703 8-12 02:36 100 44TH ST W 13 SUSPICIOUS PERSON
202200467699 8-12 02:36 400 PARK ST 63 DISPUTE
202200467711 8-12 02:32 ARLINGTON EXPY / MILL CREEK RD 1050 TRAFFIC STOP
202200467707 8-12 02:28 FIRETOWER RD / BRANNON AVE 1050 TRAFFIC STOP
202282015079 8-12 02:26 14000 ATLANTIC BLVD 13 SUSPICIOUS PERSON
202200467700 8-12 02:21 I295 N OFF RAMP / ATLANTIC BLVD 1050 TRAFFIC STOP
202200467688 8-12 02:21 1000 MAYNARD ST 37 UNVERIFIED 911 CALL
202200467687 8-12 02:21 7200 SHARBETH DR S 13 SUSPICIOUS PERSON
202200467696 8-12 02:20 45TH/C ST 1050 TRAFFIC STOP
202200467695 8-12 02:19 ARLINGTON EXY/UNIV 1050 TRAFFIC STOP
202200467694 8-12 02:16 I295 N OFF RAMP / OLD ST AUGUSTINE RD 1050 TRAFFIC STOP
202200467690 8-12 02:15 103RD ST / PLAYPEN DR 1050 TRAFFIC STOP
202200467617 8-12 02:13 13700 MACAPA RD 2 63 DISPUTE IMPAIRED/INTOXICATED
202200467686 8-12 02:11 5300 LENOX AVE 88P ASSAULT IN PROGRESS
202200467685 8-12 02:08 500 ADAMS ST E 88 ASSAULT
202200467683 8-12 02:06 I295 N ON RAMP / PHILIPS HWY 12 RECKLESS DRIVER
202200467664 8-12 02:05 4800 VERMONT RD 13 SUSPICIOUS PERSON
202200467679 8-12 02:02 I95 S OFF RAMP / JTB E ON RAMP 1050 TRAFFIC STOP
202200467674 8-12 02:00 1400 STATE ST W 76 ASSIST OTHER AGENCY
202200467668 8-12 01:50 JTB BLVD / PHILIPS HWY 13 SUSPICIOUS PERSON
202282015077 8-12 01:43 13700 ATLANTIC BLVD 76 ASSIST OTHER AGENCY
202200467659 8-12 01:37 7000 BUTTERFLY CT 64 NOISE COMPLAINT
202200467660 8-12 01:36 700 VENUS-MARS CT 64 NOISE COMPLAINT
202200467656 8-12 01:32 700 STARRATT RD 96 ASSIST MOTORIST
202200467646 8-12 01:32 SAPPHO AVE / CASSAT AVE 33 DISCHARGING OF FIREARM
202200467637 8-12 01:31 5300 CORD AVE 0 22 DOMESTIC DISTURBANCE W/WEAPON
202200467638 8-12 01:30 7600 JANA LN S 64 NOISE COMPLAINT
202200467652 8-12 01:28 BEACH BLVD 38 TRAFFIC ASSIGNMENT
202200467634 8-12 01:18 2900 VERN DR 33 DISCHARGING OF FIREARM
202200467630 8-12 01:09 100 43RD ST E 22 DOMESTIC
202200467618 8-12 01:07 11200 HARTS RD 37 UNVERIFIED 911 CALL
202200467632 8-12 01:07 900 DUNN AVE 1050 TRAFFIC STOP
202200467626 8-12 01:00 2600 BEAVER ST W 22 DOMESTIC
202200467627 8-12 00:56 NORMANDY BLVD / BLAIR RD 1050 TRAFFIC STOP
202200467568 8-12 00:56 4900 PORTSMOUTH AVE 64 NOISE COMPLAINT
202200467625 8-12 00:54 FULTON RD / JONATHAN RD 13 SUSPICIOUS PERSON
202200467620 8-12 00:49 6100 TOWNSEND RD 2 63 DISPUTE IMPAIRED/INTOXICATED
202200467602 8-12 00:49 4200 KEY ADAM DR 63 DISPUTE
202200467605 8-12 00:46 12200 PULASKI RD 63 DISPUTE
202200467619 8-12 00:44 BEACH BLVD / FOREST BLVD 13 SUSPICIOUS PERSON
202200467597 8-12 00:44 2600 BEAVER ST W 2 22 DOMESTIC DISTURBANCE
202200467593 8-12 00:40 AIRPORT CENTER DR E / PERDUE RD 4 AUTO CRASH
202200467612 8-12 00:39 3700 PACKARD DR 63 DISPUTE
202200467596 8-12 00:36 7200 103RD ST 2 63 DISPUTE IMPAIRED/INTOXICATED
202200467606 8-12 00:35 4100 PHILIPS HWY 50 FOUND/ABANDONED PROPERTY
202200467601 8-12 00:32 2600 HUGH EDWARDS DR 1066 CANCEL
202200467603 8-12 00:31 CASSAT AVE / BLANDING BLVD 1050 TRAFFIC STOP
202200467555 8-12 00:30 2800 PALMDALE ST 10J VEHICLE THEFT JUST OCCURRED
202200467599 8-12 00:28 7600 POWERS AVE 13 SUSPICIOUS PERSON
202200467562 8-12 00:23 6600 ARGYLE FOREST BLVD 13 SUSPICIOUS PERSON
202200467560 8-12 00:22 3100 TROUT RIVER BLVD 2 IMPAIRED/INTOXICATED
202200467584 8-12 00:21 100 KING ST 64 NOISE COMPLAINT
202200467591 8-12 00:18 ST AUGUSTINE RD / SAN FERNANDO RD 1050 TRAFFIC STOP
202200467590 8-12 00:18 8TH ST W / ILLINOIS ST 1050 TRAFFIC STOP
202200467589 8-12 00:17 11900 ATLANTIC BLVD 1050 TRAFFIC STOP
202200467588 8-12 00:16 6700 BEACH BLVD 13 SUSPICIOUS PERSON
202200467502 8-12 00:14 1100 AIRPORT RD 63 DISPUTE
202200467587 8-12 00:13 BAYMEADOWS RD / OLD BAYMEADOWS RD 1050 TRAFFIC STOP
202200467586 8-12 00:13 8TH ST E / LIBERTY ST N 13 SUSPICIOUS PERSON
202200467585 8-12 00:13 8TH ST E / LIBERTY ST N 13 SUSPICIOUS PERSON
202200467583 8-12 00:11 LORETTO RD / SAN JOSE BLVD 1050 TRAFFIC STOP
202200467551 8-12 00:08 8400 BLANDING BLVD 63 DISPUTE
202200467579 8-12 00:08 800 ALDERMAN RD 0 63 ARMED DISPUTE
202200467572 8-12 00:05 1300 AIRPORT RD 13 SUSPICIOUS PERSON
202200467577 8-12 00:04 3900 ENGLISH COLONY DR S 60 SUICIDE OR ATTEMPT
202200467509 8-12 00:03 2900 BEACHWOOD BLVD 64 NOISE COMPLAINT
202200467527 8-12 00:02 1200 WOODRUFF AVE 2288 DOMESTIC DISPUTE WITH/ASSAULT
202200467575 8-12 00:02 1600 POWERS AVE 13 SUSPICIOUS PERSON
202200467573 8-11 23:59 PHILIPS HWY 38 TRAFFIC ASSIGNMENT
202200467566 8-11 23:58 900 BROWARD RD 0 63 ARMED DISPUTE
202200467567 8-11 23:56 ATLANTIC BLVD / SAN PABLO RD N 1050 TRAFFIC STOP
202200467554 8-11 23:55 6700 103RD ST 63 DISPUTE
202200467564 8-11 23:53 I95 S OFF RAMP / PHILIPS HWY 16 ROAD OBSTRUCTION
202200467561 8-11 23:53 5100 NORWOOD AVE 13 SUSPICIOUS PERSON
202200467563 8-11 23:52 8800 BEACH BLVD 13 SUSPICIOUS PERSON
202200467377 8-11 23:50 6300 BARRY DR 2288 DOMESTIC DISPUTE WITH/ASSAULT
202200467558 8-11 23:50 POWERS AVE / TOLEDO RD 1050 TRAFFIC STOP
202200467557 8-11 23:49 15300 MAX LEGGETT PKWY 1050 TRAFFIC STOP
202200467552 8-11 23:48 9500 CROSSHILL BLVD 63 DISPUTE
202200467553 8-11 23:47 10000 SKINNER LAKE DR 63 DISPUTE
202200467550 8-11 23:46 CEDAR ST / NALDO AVE 0 13 ARMED SUSPICIOUS PERSON
202200467549 8-11 23:44 MLKEXIT BLVD RP / BOULEVARD 1050 TRAFFIC STOP
202200467489 8-11 23:43 6800 RHODE ISLAND DR W 2 22 DOMESTIC DISTURBANCE
202200467548 8-11 23:42 2600 HUGH EDWARDS DR 60 SUICIDE OR ATTEMPT
202200467545 8-11 23:40 2100 BROOKLYN RD 0 13 ARMED SUSPICIOUS PERSON
202200467539 8-11 23:40 9300 103RD ST 8 MISSING PERSON
202200467547 8-11 23:39 ORANGE PICKER RD / SAN JOSE BLVD 13 SUSPICIOUS PERSON
202200467546 8-11 23:39 19TH ST W / FLANDERS ST 1050 TRAFFIC STOP
202200467518 8-11 23:39 6000 ARGYLE FOREST BLVD 76 ASSIST OTHER AGENCY
202200467542 8-11 23:37 8800 BEACH BLVD 63 DISPUTE
202200467541 8-11 23:35 NORMANDY BLVD / MANNING CEMETERY RD 1050 TRAFFIC STOP
202200467415 8-11 23:34 3700 HARTLEY RD 63 DISPUTE
202200467070 8-11 23:34 I295 S OFF RAMP / JTB W ON RAMP 13 SUSPICIOUS PERSON
202200467016 8-11 23:34 JTB BLVD / PHILIPS HWY 3 HIT AND RUN CRASH
202200466992 8-11 23:34 JTB W ON RAMP / SOUTHSIDE BLVD 4 AUTO CRASH
202200466982 8-11 23:34 100 BUCKMAN BRG N 4 AUTO CRASH
202200467538 8-11 23:33 21ST ST E / LIBERTY ST N 13 SUSPICIOUS PERSON
202200467535 8-11 23:33 2200 RIVERSIDE AVE 76 ASSIST OTHER AGENCY
202200467526 8-11 23:33 12300 GLENN HOLLOW DR 13 SUSPICIOUS PERSON
202200467536 8-11 23:32 MAIN ST N / 12TH ST W 1050 TRAFFIC STOP
202200467524 8-11 23:30 1100 KENDALL TOWN BLVD 64 NOISE COMPLAINT
202200467419 8-11 23:30 9200 WASHINGTON AVE 63 DISPUTE
202200467530 8-11 23:30 6100 ARLINGTON EXPY 13 SUSPICIOUS PERSON
202200467532 8-11 23:29 JTB E OFF RAMP / SOUTHSIDE BLVD 1050 TRAFFIC STOP
202200467531 8-11 23:29 DUNN AVE 38 TRAFFIC ASSIGNMENT
202200467525 8-11 23:28 5900 FT CAROLINE RD 1066 CANCEL
202200467503 8-11 23:23 1400 MT HERMAN ST 2288 DOMESTIC DISPUTE WITH/ASSAULT
202200467494 8-11 23:23 I95 S OFF RAMP / GOLFAIR BLVD 13 SUSPICIOUS PERSON
202200467522 8-11 23:19 11TH ST W / DOCTOR ROY BAKER ST 1050 TRAFFIC STOP
202200467496 8-11 23:18 5200 LEXINGTON AVE 2288 DOMESTIC DISPUTE WITH/ASSAULT
202200467512 8-11 23:16 7700 MACDOUGALL DR 63 DISPUTE
202200467515 8-11 23:16 NEW KINGS RD 38 TRAFFIC ASSIGNMENT
202200467483 8-11 23:15 700 59TH ST E 22 DOMESTIC
202200467493 8-11 23:13 14000 MANOWAR LN 22 DOMESTIC
202200467482 8-11 23:13 8600 OSPREY LN 63 DISPUTE
202200467513 8-11 23:13 BEACH BLVD / PARENTAL HOME RD 1050 TRAFFIC STOP
202200467492 8-11 23:12 8400 WINDYPINE LN 2 22 DOMESTIC DISTURBANCE
202200467446 8-11 23:12 400 PARK ST 63 DISPUTE
202200467441 8-11 23:11 800 VILLAGE CENTER DR N 14R VANDALISM RESIDENCE
202200467508 8-11 23:10 8TH/I95 1050 TRAFFIC STOP
202200467488 8-11 23:08 800 PRUDENTIAL DR 37 UNVERIFIED 911 CALL
202200467485 8-11 23:07 1300 7TH ST W 64 NOISE COMPLAINT
202200467500 8-11 23:04 1000 EDGEWOOD AVE N 63 DISPUTE
202200467501 8-11 23:04 1900 ATLANTIC BLVD 13 SUSPICIOUS PERSON
202200467497 8-11 23:02 11600 SAN JOSE BLVD 10R VEHICLE THEFT RECOVERY
202200467495 8-11 23:01 7400 SHINDLER DR 76 ASSIST OTHER AGENCY
202200467491 8-11 22:59 9300 103RD ST 13 SUSPICIOUS PERSON
202282015075 8-11 22:56 700(500) BLK ASSISI LN 1050 TRAFFIC STOP
202200467487 8-11 22:55 BEACH BLVD / SANS PAREIL ST 1050 TRAFFIC STOP
202200467484 8-11 22:53 3300 20TH ST W 1050 TRAFFIC STOP
202200467474 8-11 22:53 100 E BAY ST 63 DISPUTE
202200467447 8-11 22:51 11900 HARMONY DR 22 DOMESTIC
202200467385 8-11 22:51 4900 SUNBEAM RD 73 DRUG INVESTIGATION
202282015074 8-11 22:50 MAYPORT RD / PLAZA 1050 TRAFFIC STOP
202200467386 8-11 22:49 8300 PLUMMER RD 22 DOMESTIC
202282015073 8-11 22:48 1200 ATLANTIC BLVD 1050 TRAFFIC STOP
202200467479 8-11 22:46 LIBERTY ST N / 21ST ST E 96 ASSIST MOTORIST
202200467477 8-11 22:45 4100 PHILIPS HWY 1050 TRAFFIC STOP
202200467473 8-11 22:43 1100 MANTES AVE 76 ASSIST OTHER AGENCY
202200467470 8-11 22:39 MAIN ST N / 8TH ST E 1050 TRAFFIC STOP
202282015072 8-11 22:38 2000 MAYPORT RD 1050 TRAFFIC STOP
202200467469 8-11 22:38 103RD ST / VALDURA AVE 13 SUSPICIOUS PERSON
202200467468 8-11 22:37 2700 ENDEAVOUR LN 60 SUICIDE OR ATTEMPT
202200467466 8-11 22:37 11800 BEACH BLVD 76 ASSIST OTHER AGENCY
202200467467 8-11 22:36 8TH ST E / MARKET ST N 1050 TRAFFIC STOP
202282015071 8-11 22:36 2400 MAYPORT RD 1050 TRAFFIC STOP
202200467464 8-11 22:35 MARTIN LUTHER KING JR PKWY / I95 N ON RAMP 4 53 TRAFFIC CRASH PERSON INJURED
202200467465 8-11 22:35 BONNEVAL RD / BENTLEY RD 60 SUICIDE OR ATTEMPT
202200467463 8-11 22:34 12100 HAYDEN LAKES CIR 22 DOMESTIC
202200467376 8-11 22:33 8800 BEACH BLVD 63 DISPUTE
202200467461 8-11 22:33 WALNUT ST / WALNUT CT 13 SUSPICIOUS PERSON
202200467459 8-11 22:33 103RD/KINKAID 1050 TRAFFIC STOP
202200467457 8-11 22:32 WILSON BLVD / FIRESTONE RD 1050 TRAFFIC STOP
202200467456 8-11 22:30 103RD ST / SAMARITAN WAY 1050 TRAFFIC STOP
202200467443 8-11 22:28 1400 9TH ST W 6388 DISPUTE WITH ASSAULT
202200467453 8-11 22:28 ROOSEVELT BLVD / ALLEGHENY RD 1050 TRAFFIC STOP
202200467451 8-11 22:27 8TH ST E / LIBERTY ST N 1050 TRAFFIC STOP
202200467334 8-11 22:27 1700 POWHATTAN ST 2288 DOMESTIC DISPUTE WITH/ASSAULT
202200467449 8-11 22:26 2100 MLK 1050 TRAFFIC STOP
202200467444 8-11 22:23 1900 EVERGREEN AVE 13 SUSPICIOUS PERSON
202200467445 8-11 22:22 VAN BUREN ST / OAKLEY ST 1050 TRAFFIC STOP
202200467426 8-11 22:21 7400 SCARLET IBIS LN 8 MISSING PERSON
202200467439 8-11 22:21 6800 PLUM LAKE DR N 27 MENTALLY ILL PERSON
202200467435 8-11 22:19 1600 ST PAUL AVE 13 SUSPICIOUS PERSON
202200467321 8-11 22:18 2200 BETSY DR 95ID IDENTITY THEFT
202200467436 8-11 22:18 700 WATER ST 64 NOISE COMPLAINT
202200467440 8-11 22:18 DUNN/BEC 1050 TRAFFIC STOP
202200467438 8-11 22:17 DUNN AVE / BISCAYNE BLVD 1050 TRAFFIC STOP
202200467437 8-11 22:16 10200 LEM TURNER RD 73 DRUG INVESTIGATION
202200467433 8-11 22:16 7400 LEGRANDE ST S 2288 DOMESTIC DISPUTE WITH/ASSAULT
202200467434 8-11 22:14 SPEARING ST / 3RD ST E 1050 TRAFFIC STOP
202200467431 8-11 22:14 10800 HARTS RD 27 MENTALLY ILL PERSON
202200467430 8-11 22:14 1600 ALMIRA ST 14R VANDALISM RESIDENCE
202200467427 8-11 22:13 3500 UNIVERSITY BLVD N 56 JUVENILE COMPLAINT
202200467428 8-11 22:11 103RD ST / VALDURA AVE 1050 TRAFFIC STOP
202200467425 8-11 22:10 LANE AVE S / WILSON BLVD 1050 TRAFFIC STOP
202200467421 8-11 22:09 600 OCEAN ST N 64 NOISE COMPLAINT
202200467424 8-11 22:09 8800 BEACH BLVD 4 AUTO CRASH
202200467306 8-11 22:09 SOUTHSIDE BLVD / PHILIPS HWY 16 ROAD OBSTRUCTION
202200467422 8-11 22:09 JTB W OFF RAMP / BELFORT RD 1050 TRAFFIC STOP
202200467420 8-11 22:08 LEM TURNER RD / EDGEWOOD AVE W 1050 TRAFFIC STOP
202200467418 8-11 22:06 POWERS AVE / UNIVERSITY BLVD W 1050 TRAFFIC STOP
202200467417 8-11 22:06 1000 HURON ST 1050 TRAFFIC STOP
202200467414 8-11 22:04 8800 BEACH BLVD 4 AUTO CRASH
202200467416 8-11 22:04 JTB 38 TRAFFIC ASSIGNMENT
202200467413 8-11 22:04 1200 DUNN AVE 1050 TRAFFIC STOP
202200467412 8-11 22:03 DUNN AVE / HARTS RD 1050 TRAFFIC STOP
202200467379 8-11 22:03 6800 CISCO GARDENS RD 63 DISPUTE
202200467409 8-11 22:02 14400 BEACH BLVD 1 IMPAIRED/DRUNK DRIVER
202200467305 8-11 22:01 6800 BAMBI LN 86 LOST PROPERTY
202200467405 8-11 22:01 2600 BEAVER ST W 63 DISPUTE
202200467408 8-11 22:01 LAVIN RD / LOUVRE DR 1050 TRAFFIC STOP
202200467368 8-11 22:00 4000 GRANT RD 11 ABANDONED VEHICLE
202200467407 8-11 21:59 ROOSEVELT BLVD / ORTEGA FOREST DR 1050 TRAFFIC STOP
202200467406 8-11 21:59 I295 N OFF RAMP / GATE PKWY 1050 TRAFFIC STOP
202200467403 8-11 21:59 1400 6TH ST W 63 DISPUTE
202200467393 8-11 21:58 3800 PRITMORE RD 27 MENTALLY ILL PERSON
202200467399 8-11 21:57 PHOENIX AVE / JENNINGS ST 13 SUSPICIOUS PERSON
202200467383 8-11 21:56 1300 7TH ST W 60 SUICIDE OR ATTEMPT
202200467313 8-11 21:55 500 LANE AVE S 2 22 DOMESTIC DISTURBANCE
202200467388 8-11 21:55 1900 PAINE AVE 14R VANDALISM RESIDENCE
202200467401 8-11 21:55 1000 EDGEWOOD AVE N 73 DRUG INVESTIGATION
202200467390 8-11 21:54 EDGEWOOD AVE N / INA ST 16 ROAD OBSTRUCTION
202200467380 8-11 21:53 4400 ROOSEVELT BLVD 61 FIGHT
202200467397 8-11 21:52 I95 N OFF RAMP / MAIN STREET BRIDGE EXPY 1050 TRAFFIC STOP
202200467365 8-11 21:51 2100 RIVER BLVD 13 SUSPICIOUS PERSON
202200467389 8-11 21:51 9000 BIGHORN TRL 64 NOISE COMPLAINT
202200467394 8-11 21:51 I295 S OFF RAMP / JTB W ON RAMP 1050 TRAFFIC STOP
202200467381 8-11 21:46 10500 OAK CREST DR 10J VEHICLE THEFT JUST OCCURRED
202200467387 8-11 21:46 5600 SOUTEL 1050 TRAFFIC STOP
202200467284 8-11 21:44 3700 TOLEDO RD 64 NOISE COMPLAINT
202200467384 8-11 21:43 YOUNGERMAN CIR E / BLANDING BLVD 60 SUICIDE OR ATTEMPT
202200467382 8-11 21:42 SAN JUAN AVE / JAMMES RD 1050 TRAFFIC STOP
202200467274 8-11 21:42 2100 EDGEWOOD AVE N 9 THEFT
202200467371 8-11 21:41 COUNTY DOCK RD / MANDARIN RD 54 ILLEGALLY PARKED CAR
202200467330 8-11 21:40 4400 LOVELAND PASS DR E 76 ASSIST OTHER AGENCY
202200467372 8-11 21:39 22ND ST E / MAIN ST N 1050 TRAFFIC STOP
202200467370 8-11 21:38 9700 LEM TURNER RD 0 23CJ ARMED ROBBERY CARJACKING JUST OCCURRED
202200467369 8-11 21:36 WILSON BLVD / HUGH EDWARDS DR 1050 TRAFFIC STOP
202200467363 8-11 21:35 4000 WALNUT ST 5388 ASSAULT INVOLVING INJURY
202200467364 8-11 21:34 LAKE SHORE BLVD / LENOX AVE 1050 TRAFFIC STOP
202200467360 8-11 21:34 EDGEWOOD AVE W / AVENUE B 37 UNVERIFIED 911 CALL
202200467357 8-11 21:33 1100 12TH ST W 63 DISPUTE
202200467343 8-11 21:32 900 UNIVERSITY BLVD N 63 DISPUTE
202200467355 8-11 21:30 BEAVER ST W / MINNIE ST 1050 TRAFFIC STOP
202200467353 8-11 21:28 GARFIELD ST / BROADWAY AVE 1050 TRAFFIC STOP
202200467349 8-11 21:27 ATLANTIC BLVD / HAWAII DR E 1050 TRAFFIC STOP
202200467348 8-11 21:26 GOLFAIR BLVD / I95 N OFF RAMP 1050 TRAFFIC STOP
202200467347 8-11 21:26 MAIN ST / 2ND ST W 1050 TRAFFIC STOP
202200467342 8-11 21:23 MONCRIEF RD W / HARDING AVE 1050 TRAFFIC STOP
202200467341 8-11 21:22 BEAVER ST W / MINNIE ST 1050 TRAFFIC STOP
202200467339 8-11 21:22 GRACE LN / VERNA BLVD 1050 TRAFFIC STOP
202200467335 8-11 21:22 11100 CAROLINE CREST DR 14R VANDALISM RESIDENCE
202200467338 8-11 21:22 PARIS AVE / 45TH ST W 1050 TRAFFIC STOP
202200467316 8-11 21:20 LEM TURNER RD / TROUT RIVER BLVD 13 SUSPICIOUS PERSON
202200467163 8-11 21:19 4700 RIDGEWOOD AVE 73 DRUG INVESTIGATION
202200467332 8-11 21:19 7900 GUERAD DR N 1 IMPAIRED/DRUNK DRIVER
202200467333 8-11 21:18 3100 ANNISTON RD 76 ASSIST OTHER AGENCY
202200467328 8-11 21:16 I295 S OFF RAMP / NEW KINGS RD 76 ASSIST OTHER AGENCY
202200467331 8-11 21:16 BROOKVIEW DR N / ATLANTIC BLVD 13 SUSPICIOUS PERSON
202200467320 8-11 21:15 TOUCHTON RD / DEER LAKE CT 64 NOISE COMPLAINT
202200467327 8-11 21:15 CASSAT AVE / WOODCREST RD 1050 TRAFFIC STOP
202200467278 8-11 21:15 2300 LOOKING GLASS LN 21C BURGLARY CONVEYANCE
202200467312 8-11 21:14 3100 SCOTTY DR 27 MENTALLY ILL PERSON
202200467326 8-11 21:14 19TH ST W / PEARL ST N 1050 TRAFFIC STOP
202200467165 8-11 21:14 1000 AIRPORT RD 19 ANIMAL INVESTIGATION
202200467292 8-11 21:13 900 MARGARET ST 63 DISPUTE
202200467245 8-11 21:13 7700 SOUTHSIDE BLVD 22 DOMESTIC
202200467325 8-11 21:12 SAN PABLO RD S / INTRACOASTAL SOUND DR 1050 TRAFFIC STOP
202200467323 8-11 21:12 CARDINAL BLVD / CASSAT AVE 1050 TRAFFIC STOP
202200467265 8-11 21:11 800 EDGEWOOD AVE N 63 DISPUTE
202200467315 8-11 21:11 1500 45TH ST W 1066 CANCEL
202200467317 8-11 21:10 1500 RIVER HILLS CIR W 76 ASSIST OTHER AGENCY
202200467318 8-11 21:09 SEABOARD AVE / 118TH ST 1050 TRAFFIC STOP
202200467314 8-11 21:09 4800 BANKHEAD AVE 76 ASSIST OTHER AGENCY
202200466900 8-11 21:09 1600 DUNN AVE 21C BURGLARY CONVEYANCE
202200467267 8-11 21:08 5900 WILSON BLVD 63 DISPUTE
202200467220 8-11 21:06 7400 POWERS AVE 63 DISPUTE
202200467244 8-11 21:05 NORMANDY BLVD / YELLOW WATER RD 2288 DOMESTIC DISPUTE WITH/ASSAULT
202200467296 8-11 21:05 7200 ARLINGTON EXPY 27 MENTALLY ILL PERSON
202200467230 8-11 21:05 5300 NEW KINGS RD 9 THEFT
202200467311 8-11 21:03 2500 DUNN AVE 1050 TRAFFIC STOP
202200467310 8-11 21:03 BEACH BLVD / ST JOHNS BLUFF RD S 13 SUSPICIOUS PERSON
202200467309 8-11 21:03 3400 SAN PABLO RD S 1050 TRAFFIC STOP
202200467307 8-11 21:03 EDGEWOOD AVE N / SHENANDOAH AVE 1050 TRAFFIC STOP
202200467304 8-11 21:00 SAN PABLO PKWY / LILY MARSH AVE 1050 TRAFFIC STOP
202282015065 8-11 21:00 2000 MAYPORT RD 1050 TRAFFIC STOP
202200467301 8-11 20:59 BROAD ST N / BEAVER ST W 76 ASSIST OTHER AGENCY
202200467300 8-11 20:57 SAN PABLO RD S / BEACH BLVD 1050 TRAFFIC STOP
202200467257 8-11 20:56 8000 103RD ST 76 ASSIST OTHER AGENCY
202200467299 8-11 20:56 SAN PABLO RD S / LAS BRISAS WAY 1050 TRAFFIC STOP
202200467258 8-11 20:55 8300 NEW KINGS RD 3 HIT AND RUN CRASH
202200467134 8-11 20:55 5800 118TH ST 63 DISPUTE
202200467298 8-11 20:55 BEACH BLVD / SAN PABLO RD S 1 IMPAIRED/DRUNK DRIVER
202200467178 8-11 20:54 6600 ECTOR RD 73 DRUG INVESTIGATION
202200467294 8-11 20:52 4700 MARLBORO CIR E 1050 TRAFFIC STOP
202200467254 8-11 20:51 4800 FLORIDA CLUB CIR 1066 CANCEL
202200467291 8-11 20:49 NORMANDY BLVD / CHAFFEE RD S 76 ASSIST OTHER AGENCY
202200467287 8-11 20:49 14900 MAX LEGGETT PKWY 9P THEFT IN PROGRESS
202200467290 8-11 20:48 BEACH BLVD / STATION CREEK RD 50 FOUND/ABANDONED PROPERTY
202200467289 8-11 20:47 SAN PABLO RD S / DRAKES POINT DR 1050 TRAFFIC STOP
202200467241 8-11 20:45 6100 FINCH AVE 11 ABANDONED VEHICLE
202200467283 8-11 20:44 BEACH BLVD / SAN PABLO RD S 1050 TRAFFIC STOP
202200467089 8-11 20:44 HIDDEN HAVEN RD / HIDDEN HAVEN CT 54 ILLEGALLY PARKED CAR
202200467273 8-11 20:44 PATRICIA CT / DERITO DR 33 DISCHARGING OF FIREARM
202200467281 8-11 20:43 SAN PABLO 38 TRAFFIC ASSIGNMENT
202200467271 8-11 20:39 PEARCE ST / 31ST ST W 1050 TRAFFIC STOP
202200467170 8-11 20:39 9500 BAYMEADOWS RD 2 22 DOMESTIC DISTURBANCE
202200467270 8-11 20:38 I10 E OFF RAMP / LANE AVE S 1050 TRAFFIC STOP
202200467169 8-11 20:37 4900 KEY LIME DR 22 DOMESTIC
202200467259 8-11 20:37 800 BERT RD 0 63 ARMED DISPUTE
202200467262 8-11 20:37 6900 WILEY RD 23I88 ROBBERY INDIVIDUAL W/ASSAULT
202200467269 8-11 20:36 BLANDING BLVD / LONGCHAMP DR 1050 TRAFFIC STOP
202200467268 8-11 20:35 31ST ST W / MONCRIEF RD 1050 TRAFFIC STOP
202200467190 8-11 20:35 1000 YELLOW WATER RD 63 DISPUTE
202200467263 8-11 20:35 900 MONROE ST W 33 DISCHARGING OF FIREARM
202200467206 8-11 20:34 100 DUVAL ST W 63 DISPUTE
202200467264 8-11 20:34 1600 SAN PABLO RD S 1050 TRAFFIC STOP
202200467083 8-11 20:34 4400 TYNE CT 22 DOMESTIC
202200467260 8-11 20:31 SAN PABLO RD S 38 TRAFFIC ASSIGNMENT
202200467256 8-11 20:30 100 DAMES POINT BRG S 1050 TRAFFIC STOP
202200467255 8-11 20:30 MONCRIEF RD / MYRTLE AVE N 1050 TRAFFIC STOP
202200467253 8-11 20:29 BARNETT ST / 25TH ST W 1050 TRAFFIC STOP
202200467252 8-11 20:28 SR9B EXPY S / ETOWN EXIT SR9B RP 1050 TRAFFIC STOP
202200467219 8-11 20:28 2100 NAVAHO AVE 9 THEFT
202282015064 8-11 20:28 2400 MAYPORT RD 13 SUSPICIOUS PERSON
202200467249 8-11 20:27 6300 BEACH BLVD 76 ASSIST OTHER AGENCY
202200467251 8-11 20:27 SAN PABLO RD S / CASTAWAY DR 1050 TRAFFIC STOP
202200467250 8-11 20:27 SAN JUAN AVE / HYDE PARK RD 1050 TRAFFIC STOP
202200467242 8-11 20:27 9800 HUTCHINSON PARK DR 63 DISPUTE
202200467246 8-11 20:26 14800 EDWARDS CREEK RD 2 63 DISPUTE IMPAIRED/INTOXICATED
202200467167 8-11 20:26 8400 FINWOOD AVE 63 DISPUTE
202200467009 8-11 20:26 12100 BREEZE CT 63 DISPUTE
202200467243 8-11 20:25 HEADLEY TER / STIMSON ST 76 ASSIST OTHER AGENCY
202200467238 8-11 20:24 11100 ATLANTIC BLVD 22 DOMESTIC
202200467183 8-11 20:24 4600 RIVERDALE RD 6388 DISPUTE WITH ASSAULT
202200467173 8-11 20:24 6100 COLLINS RD 2288 DOMESTIC DISPUTE WITH/ASSAULT
202200467189 8-11 20:23 5600 BARNHILL DR 64 NOISE COMPLAINT
202200467223 8-11 20:23 2200 DUMFRIES CIR E 63 DISPUTE
202200467164 8-11 20:22 8000 ALDERMAN RD 86 LOST PROPERTY
202200467224 8-11 20:21 1800 MCGIRTS POINT BLVD 22 DOMESTIC
202200467239 8-11 20:20 34TH ST W / WILSON ST 1050 TRAFFIC STOP
202200467237 8-11 20:20 SAN PABLO RD S / CRYSTAL COVE DR 1050 TRAFFIC STOP
202200467213 8-11 20:19 2200 EDGEWOOD AVE W 22 DOMESTIC
202200467233 8-11 20:18 3800 PERRY ST 62 PERSON CUT
202200467202 8-11 20:17 8800 5TH AVE 87 DAMAGED PROPERTY
202200467227 8-11 20:16 3200 WARRINGTON ST 64 NOISE COMPLAINT
202200467222 8-11 20:15 GARDEN ST / IMESON RD 1066 CANCEL
202200467186 8-11 20:14 700 WATERBIRD LN 63 DISPUTE
202200467203 8-11 20:13 1600 RIVERSIDE AVE 63 DISPUTE
202200467218 8-11 20:13 LEM TURNER RD / I295 N OFF RAMP 76 ASSIST OTHER AGENCY
202200467214 8-11 20:13 5800 EDENFIELD RD 54 ILLEGALLY PARKED CAR
202200467221 8-11 20:12 MYRTLE AVE N / GOLFAIR BLVD 1050 TRAFFIC STOP
202200467137 8-11 20:12 BEACH BLVD / KERNAN BLVD EXIT BEACH BLVD RP 13 SUSPICIOUS PERSON
202200467144 8-11 20:11 9900 SOUTHSIDE BLVD 63 DISPUTE
202200467210 8-11 20:11 3500 TOWNSEND BLVD 56 JUVENILE COMPLAINT
202200467212 8-11 20:09 7200 OLD KINGS RD S 2288 DOMESTIC DISPUTE WITH/ASSAULT
202200467211 8-11 20:08 7200 OLD KINGS RD S 2288 DOMESTIC DISPUTE WITH/ASSAULT
202200467205 8-11 20:08 VICTORIA ST / HILL ST 64 NOISE COMPLAINT
202200467207 8-11 20:07 7500 WAKEFIELD AVE 76 ASSIST OTHER AGENCY
202200467209 8-11 20:07 SAN PABLO RD S / BEACH BLVD 1050 TRAFFIC STOP
202200467201 8-11 20:06 5200 COLLINS RD 2 22 DOMESTIC DISTURBANCE
202200467140 8-11 20:04 2800 BULLS BAY HWY 87 DAMAGED PROPERTY
202200467174 8-11 20:04 CHEROKEE COVE DR / CHAFFEE RD S 13 SUSPICIOUS PERSON
202200467081 8-11 20:03 300 CANAL ST 54 ILLEGALLY PARKED CAR
202200467184 8-11 20:03 10500 ANDERS BOULEVARD 9 THEFT
202200467147 8-11 20:03 13800 OLD ST AUGUSTINE RD 3 HIT AND RUN CRASH
202200467200 8-11 20:03 SAN PABLO RD S / CRYSTAL COVE DR 1050 TRAFFIC STOP
202200467199 8-11 20:02 MYRTLE AVE N / 31ST ST W 1050 TRAFFIC STOP
202200467195 8-11 20:02 700 NAUTICA DR 4 AUTO CRASH
202200467194 8-11 20:01 20TH ST W / MONCRIEF RD 1050 TRAFFIC STOP
202200467124 8-11 20:01 10000 ATLANTIC BLVD 9 THEFT
202200467158 8-11 20:00 1600 45TH ST W 0 22 DOMESTIC DISTURBANCE W/WEAPON
202200467133 8-11 19:57 3700 HARTLEY RD 1066 CANCEL
202282015063 8-11 19:57 ATLANTIC BLVD / PINE ST 1050 TRAFFIC STOP
202200467179 8-11 19:56 1600 SHERIDAN ST 76 ASSIST OTHER AGENCY
202200467182 8-11 19:56 13TH ST W / BARNETT ST 1050 TRAFFIC STOP
202200467172 8-11 19:55 6300 MORSE AVE 0 88J ARMED ASSAULT JUST OCCURRED
202200467180 8-11 19:55 1300 16TH ST W 1050 TRAFFIC STOP
202200467068 8-11 19:53 12900 CHETS CREEK DR S 4 AUTO CRASH
202200467148 8-11 19:53 7700 PARADISE ISLAND BLVD 95ID IDENTITY THEFT
202282015062 8-11 19:52 STURDIVANT AVE / SEMINOLE RD 1050 TRAFFIC STOP
202200467168 8-11 19:52 STOCKTON ST / ROSSELLE ST 76 ASSIST OTHER AGENCY
202200467142 8-11 19:51 7900 NORMANDY BLVD 63 DISPUTE
202200467113 8-11 19:51 2900 BEACHWOOD BLVD 63 DISPUTE
202200467159 8-11 19:50 11400 BEACH BLVD 2 63 DISPUTE IMPAIRED/INTOXICATED
202200467156 8-11 19:50 9900 PRITCHARD RD 13 SUSPICIOUS PERSON
202200467166 8-11 19:50 BEACH BLVD / 9TH ST N 1050 TRAFFIC STOP
202200467130 8-11 19:50 5600 TIMUQUANA RD 63 DISPUTE
202200467152 8-11 19:49 1600 KINGS RD 3 HIT AND RUN CRASH
202200467157 8-11 19:49 3900 GRANT RD 56 JUVENILE COMPLAINT
202200467025 8-11 19:48 3000 MONCRIEF RD 2 63 DISPUTE IMPAIRED/INTOXICATED
202200467007 8-11 19:48 800 ALLISON ST 63 DISPUTE
202200467153 8-11 19:47 1200 JEFFERSON ST N 27 MENTALLY ILL PERSON
202200467106 8-11 19:46 6700 CALVADOS AVE 14C VANDALISM CONVEYANCE
202200467050 8-11 19:46 5000 TOPROYAL LN 63 DISPUTE
202200467155 8-11 19:44 3RD ST S / 3RD AVE S 1050 TRAFFIC STOP
202200467112 8-11 19:44 2000 JAMMES RD 4 AUTO CRASH
202200467109 8-11 19:42 5100 LENOX AVE 68 CON GAME/FLIM FLAM
202200467149 8-11 19:40 100 AIRPORT CENTER DR 1050 TRAFFIC STOP
202200467146 8-11 19:37 800 DUNN AVE 73 DRUG INVESTIGATION
202200467145 8-11 19:37 I95 N OFF RAMP / 8TH ST W 1050 TRAFFIC STOP
202200467138 8-11 19:36 5700 LENOX AVE 56 JUVENILE COMPLAINT
202200467143 8-11 19:35 1600 3RD ST S 1050 TRAFFIC STOP
202200467131 8-11 19:33 6100 COLLINS RD 37 UNVERIFIED 911 CALL
202200467121 8-11 19:33 600 NEWNAN ST N 2288 DOMESTIC DISPUTE WITH/ASSAULT
202200467132 8-11 19:32 6900 WILEY RD 23I88 ROBBERY INDIVIDUAL W/ASSAULT
202200467120 8-11 19:29 6000 MERRILL RD 63 DISPUTE
202200467024 8-11 19:29 100 JULIA ST N 68 CON GAME/FLIM FLAM
202200467127 8-11 19:28 COLE RD / COLE RD W 1 IMPAIRED/DRUNK DRIVER
202200467126 8-11 19:27 3700 TOLEDO RD 64 NOISE COMPLAINT
202200467117 8-11 19:27 13800 BEACH BLVD 63 DISPUTE
202200467122 8-11 19:26 14000 ATLANTIC BLVD 76 ASSIST OTHER AGENCY
202200467105 8-11 19:25 21ST ST W / PEARL ST N 22 DOMESTIC
202200467115 8-11 19:23 BEACH BLVD / TAMAYA BLVD 4 AUTO CRASH
202200467111 8-11 19:23 5900 UNIVERSITY BLVD W 88J ASSAULT JUST OCCURRED
202200467118 8-11 19:22 8000 JAGUAR DR 22 DOMESTIC
202200467072 8-11 19:21 11700 GREENADA DR 63 DISPUTE
202200467116 8-11 19:20 3700 3RD ST S 1050 TRAFFIC STOP
202200467114 8-11 19:20 14200 BEACH BLVD 27 MENTALLY ILL PERSON
202200467104 8-11 19:20 GALLOWAY DR / CUMBRIA BLVD 13 SUSPICIOUS PERSON
202200467053 8-11 19:17 1600 BLK 11TH ST W 64 NOISE COMPLAINT
202200467108 8-11 19:14 4600 RIVER CITY DR 63 DISPUTE
202200467100 8-11 19:14 1800 FOURAKER RD 4 AUTO CRASH
202200467102 8-11 19:14 6400 WATERGATE LN 61 FIGHT
202200467086 8-11 19:13 13900 BARTRAM PARK BLVD 22 DOMESTIC
202200467098 8-11 19:13 7200 EXLINE RD 22 DOMESTIC
202200467031 8-11 19:11 9700 TAPESTRY PARK CIR 64 NOISE COMPLAINT
202200467095 8-11 19:11 5700 LENOX AVE 22 DOMESTIC
202200467057 8-11 19:10 2500 SCOTT MILL DR S 7 DEAD PERSON
202200467093 8-11 19:09 5200 LA VENTURA DR E 14C VANDALISM CONVEYANCE
202200467094 8-11 19:09 GARY ST / SAN MARCO BLVD 4 AUTO CRASH
202200467088 8-11 19:08 LONE STAR RD / MORGANA RD 4 53 TRAFFIC CRASH PERSON INJURED
202200467092 8-11 19:08 KINNON DR / EDGEWOOD AVE W 1050 TRAFFIC STOP
202200467091 8-11 19:07 5700 LENOX AVE 1050 TRAFFIC STOP
202200467073 8-11 19:07 9400 ILLINOIS ST 63 DISPUTE
202200467087 8-11 19:05 MERRILL RD / CESERY BLVD 4 AUTO CRASH
202200467085 8-11 19:05 2300 BURTON ISLAND WAY 73 DRUG INVESTIGATION
202200467032 8-11 19:03 9000 SOUTHSIDE BLVD 9 THEFT
202200467055 8-11 19:03 5900 VIRGIL LN 22 DOMESTIC
202200467061 8-11 19:01 OLD ST AUGUSTINE RD / S I95EXIT OLDSTAUG RP 3 HIT AND RUN CRASH
202200467060 8-11 19:01 13200 CITY STATION DR 63 DISPUTE
202200467005 8-11 19:01 3800 LOSCO RD 21C BURGLARY CONVEYANCE
202200467039 8-11 19:00 6200 WOODLAWN CT 63 DISPUTE
202200467046 8-11 18:59 1400 MT HERMAN ST 2 63 DISPUTE IMPAIRED/INTOXICATED
202200467075 8-11 18:58 6900 PAUL HOWARD DR 2288 DOMESTIC DISPUTE WITH/ASSAULT
202200467076 8-11 18:57 LANE AVE S / MANOTAK AVE 1050 TRAFFIC STOP
202200467034 8-11 18:56 4700 LACKAWANNA CT 63 DISPUTE
202200467045 8-11 18:56 13200 CITY SQUARE DR 87 DAMAGED PROPERTY
202200466993 8-11 18:56 10500 COLD STORAGE RD 4 AUTO CRASH
202200467059 8-11 18:52 6000 ARGYLE FOREST BLVD 4 AUTO CRASH
202200467065 8-11 18:52 7200 OLD KINGS RD S 13 SUSPICIOUS PERSON
202200467063 8-11 18:51 BEACH BLVD / HODGES BLVD 76 ASSIST OTHER AGENCY
202200467052 8-11 18:49 2200 DUMFRIES CIR E 63 DISPUTE
202200467027 8-11 18:49 13700 BEACH BLVD 63 DISPUTE
202200466955 8-11 18:49 4600 FLYNN AVE 1066 CANCEL
202200467036 8-11 18:48 6300 COLLINS RD 11 ABANDONED VEHICLE
202200467058 8-11 18:48 5600 ARLINGTON RD 76 ASSIST OTHER AGENCY
202200467044 8-11 18:48 8000 JAGUAR DR 22 DOMESTIC
202200467021 8-11 18:48 12700 ATLANTIC BLVD 9 THEFT
202200467013 8-11 18:47 5900 CLIFTON AVE 9 THEFT
202200466959 8-11 18:47 6200 WHISPERING OAKS DR N 63 DISPUTE
202200467054 8-11 18:46 LEM TURNER RD / PINE AVE 3 53 HIT AND RUN CRASH W/FIRE
202200467047 8-11 18:45 3900 SALISBURY RD 27 MENTALLY ILL PERSON
202200466970 8-11 18:45 6000 MERRILL RD 63 DISPUTE
202200467030 8-11 18:42 2800 UNIVERSITY BLVD N 4 AUTO CRASH
202200467049 8-11 18:42 I295 S OFF RAMP / OLD ST AUGUSTINE RD 1050 TRAFFIC STOP
202200467048 8-11 18:42 4500 SAN PABLO RD 54 ILLEGALLY PARKED CAR
202200467040 8-11 18:41 I95 S OFF RAMP / EMERSON ST 4 AUTO CRASH
202200467011 8-11 18:40 4300 WHISPERING INLET DR 2288 DOMESTIC DISPUTE WITH/ASSAULT
202200467002 8-11 18:40 100 21ST ST W 63 DISPUTE
202200467041 8-11 18:39 NORMANDY BLVD / MEMORIAL PARK RD 4 AUTO CRASH
202200467038 8-11 18:38 DUNN AVE / OAK BRANCH TRL 16 ROAD OBSTRUCTION
202200467022 8-11 18:38 1900 KINGS RD 63 DISPUTE
202200467035 8-11 18:37 2400 GLADE SPRINGS DR 76 ASSIST OTHER AGENCY
202200467033 8-11 18:37 3800 LOSCO RD 57 PERSON CALLING FOR HELP
202200467037 8-11 18:37 1800 NEW BERLIN 1050 TRAFFIC STOP
202200467008 8-11 18:31 7800 RENOIR DR 9 THEFT
202200466994 8-11 18:29 6100 KENNY RD 95 FRAUD/FORGED (CHECK, ID, RX)
202200467019 8-11 18:27 MAIN/DUVAL 1050 TRAFFIC STOP
202200467018 8-11 18:27 EDGEWOOD AVE W / AVENUE B 0 23IJ ARMED ROBBERY INDIVIDUAL JUST OCCURRED
202200466978 8-11 18:26 9300 103RD ST 22 DOMESTIC
202200467017 8-11 18:23 PHILIPS HWY / BAYMEADOWS RD 1050 TRAFFIC STOP
202200467012 8-11 18:23 11700 BEACH BLVD 3 HIT AND RUN CRASH
202200467015 8-11 18:22 BLANDING BLVD / HICKS RD 1050 TRAFFIC STOP
202200467004 8-11 18:21 12200 BLACK WALNUT CT 63 DISPUTE
202200466958 8-11 18:20 6600 ARGYLE FOREST BLVD 27 MENTALLY ILL PERSON
202200467006 8-11 18:19 TOLEDO/OLD KINGS 1050 TRAFFIC STOP
202200467003 8-11 18:18 14000 N MAIN 1050 TRAFFIC STOP
202200466999 8-11 18:17 300 ASHLEY ST W 76 ASSIST OTHER AGENCY
202200466940 8-11 18:16 12700 ATLANTIC BLVD 29 WIRE DOWN
202200466998 8-11 18:16 MONUMENT RD / BROOKWOOD FOREST BLVD 16 ROAD OBSTRUCTION
202292213388 8-11 18:15 15 1050 TRAFFIC STOP
202200466979 8-11 18:13 13200 CITY SQUARE DR 87 DAMAGED PROPERTY
202200466935 8-11 18:12 3600 KIRKPATRICK CIR 2288 DOMESTIC DISPUTE WITH/ASSAULT
202200466985 8-11 18:10 500 MONROE ST E 16 ROAD OBSTRUCTION
202200466989 8-11 18:09 800 DUNN AVE 2288 DOMESTIC DISPUTE WITH/ASSAULT
202200466983 8-11 18:09 SOUTHSIDE BLVD / BAYMEADOWS RD 4 AUTO CRASH
202200466966 8-11 18:09 2500 SPRING POND LN 64 NOISE COMPLAINT
202200466988 8-11 18:08 I95 NB AT JTB 1050 TRAFFIC STOP
202200466899 8-11 18:07 2800 UNIVERSITY BLVD N 4 AUTO CRASH
202200466942 8-11 18:06 11600 ALEXIS FOREST DR 4 AUTO CRASH
202200466949 8-11 18:04 7300 BAMBERG RD 22 DOMESTIC
202200466880 8-11 18:04 1000 ST CLAIR ST 22 DOMESTIC
202200466953 8-11 18:03 10900 SAN JOSE BLVD 63 DISPUTE
202200466968 8-11 18:02 4600 PORTSMOUTH AVE 63 DISPUTE
202200466952 8-11 18:02 200 CHERRY RIDGE DR 1066 CANCEL
202200466965 8-11 18:02 6100 COLLINS RD 28 DELIVER MESSAGE
202200466969 8-11 18:02 PRITCHARD RD / JONES BRANCH BLVD 3 HIT AND RUN CRASH
202200466977 8-11 18:02 MAIN ST N / AIRPORT CENTER DR 1050 TRAFFIC STOP
202200466976 8-11 18:01 8200 COLLINS RD 1050 TRAFFIC STOP
202200466931 8-11 18:01 5700 PHILIPS HWY 63 DISPUTE
202200466967 8-11 17:58 295SB/BAYMEADOWS 1050 TRAFFIC STOP
202200466891 8-11 17:57 1600 PRUDENTIAL DR 3 HIT AND RUN CRASH
202200466946 8-11 17:55 I95 S OFF RAMP / UNIVERSITY BLVD W 4 AUTO CRASH
202200466951 8-11 17:55 500 CASSAT AVE 63 DISPUTE
202200466962 8-11 17:54 3000 SOUTHSIDE BLVD 38 TRAFFIC ASSIGNMENT
202200466947 8-11 17:52 DUVAL RD / DUNN AVE 91 TRAFFIC LIGHT/RR CROSSING MALFUNCTION
202200466954 8-11 17:52 3800 TOLEDO RD 1050 TRAFFIC STOP
202200466905 8-11 17:51 12000 NORMANDY BLVD 63 DISPUTE
202200466933 8-11 17:50 I95 S OFF RAMP / UNIVERSITY BLVD W 14CJ VANDALISM CONVEYANCE JUST OCCURRED
202200466950 8-11 17:49 SOUTHERN AVE / MC ARTHUR ST 1050 TRAFFIC STOP
202200466861 8-11 17:49 3700 UNIVERSITY BLVD S 3 HIT AND RUN CRASH
202200466825 8-11 17:47 9000 SOUTHSIDE BLVD 3 HIT AND RUN CRASH
202200466873 8-11 17:47 500 BURNING EMBERS LN 63 DISPUTE
202200466888 8-11 17:47 9600 HUTCHINSON PARK DR 13 SUSPICIOUS PERSON
202200466939 8-11 17:45 6700 COLLINS RD 22 DOMESTIC
202200466925 8-11 17:45 DUVAL RD / DUNN AVE 4 AUTO CRASH
202200466879 8-11 17:43 8800 BEACH BLVD 63 DISPUTE
202200466937 8-11 17:43 1500 KINGS RD 90 FIREWORKS
202200466934 8-11 17:41 3400 EDGEWOOD AVE N 1050 TRAFFIC STOP
202200466913 8-11 17:41 JEFFERSON ST N / BAY ST W 4 AUTO CRASH
202200466927 8-11 17:39 33RD ST W / PEARCE ST 1050 TRAFFIC STOP
202200466924 8-11 17:38 IRIS BLVD / WISTERIA ST 1050 TRAFFIC STOP
202200466908 8-11 17:33 100 BUCKMAN BRG N 4 53 TRAFFIC CRASH PERSON INJURED
202200466868 8-11 17:32 11500 HARTS RD 88 ASSAULT
202200466910 8-11 17:32 CASSAT AVE / I10 W OFF RAMP 4 53 TRAFFIC CRASH PERSON INJURED
202200466903 8-11 17:31 2000 HYDE PARK RD 37 UNVERIFIED 911 CALL
202200466912 8-11 17:31 2600 45TH ST W 1050 TRAFFIC STOP
202200466896 8-11 17:28 6300 MORSE AVE 63 DISPUTE
202200466840 8-11 17:27 N I95EXIT OLDSTAUG RP / OLD ST AUGUSTINE RD 4 AUTO CRASH
202200466881 8-11 17:26 16TH ST W / WITSCHEN AVE 56 JUVENILE COMPLAINT
202200466901 8-11 17:25 45TH ST W / VOORHIES RD 1050 TRAFFIC STOP
202200466886 8-11 17:23 4300 MORNING DOVE DR 95IDT IDENTITY THEFT TELESERVE
202200466897 8-11 17:23 I95 NB B4 I295 4 AUTO CRASH
202200466848 8-11 17:21 800 PRUDENTIAL DR 76 ASSIST OTHER AGENCY
202200466889 8-11 17:20 1300 CHAFFEE RD S 37 UNVERIFIED 911 CALL
202200466892 8-11 17:20 1600 9TH ST E 19 ANIMAL INVESTIGATION
202200466882 8-11 17:19 3800 ORLANDO CIR W 21R BURGLARY RESIDENCE
202200466884 8-11 17:17 CASTELLANO AVE / HELENA ST 1050 TRAFFIC STOP
202200466877 8-11 17:16 15200 MAX LEGGETT PKWY 63 DISPUTE
202200466864 8-11 17:16 3700 BURNT PINE DR 28 DELIVER MESSAGE
202200466869 8-11 17:16 LA VENTURA DR E / 103RD ST 4 AUTO CRASH
202200466874 8-11 17:16 FIRETOWER RD / OLD MIDDLEBURG RD N 4 AUTO CRASH
202200466863 8-11 17:15 5000 NORMANDY BLVD 63 DISPUTE
202200466795 8-11 17:15 8500 103RD ST 86 LOST PROPERTY
202200466821 8-11 17:15 1300 LAURA ST N 9 THEFT
202200466784 8-11 17:15 13900 BARTRAM PARK BLVD 63 DISPUTE
202200466878 8-11 17:13 BEAVER ST W / ELLIS RD N 4 AUTO CRASH
202200466849 8-11 17:13 6900 WILEY RD 27 MENTALLY ILL PERSON
202200466875 8-11 17:12 15200 MAX LEGGETT PKWY 27 MENTALLY ILL PERSON
202200466872 8-11 17:11 IVEY RD / DUSKIN DR 1050 TRAFFIC STOP
202200466871 8-11 17:11 BEACH BLVD 38 TRAFFIC ASSIGNMENT
202200466870 8-11 17:10 JTB E OFF RAMP / SAN PABLO RD S 1050 TRAFFIC STOP
202200466867 8-11 17:09 FIRESTONE RD / 103RD ST 1050 TRAFFIC STOP
202200466866 8-11 17:09 STARRATT RD / YELLOW BLUFF RD 1050 TRAFFIC STOP
202200466847 8-11 17:09 5400 COLLINS RD 9T THEFT (TELESERVE)
202200466860 8-11 17:08 200 ORANGEDALE AVE 29 WIRE DOWN
202200466788 8-11 17:06 1300 14TH ST W 6388 DISPUTE WITH ASSAULT
202200466855 8-11 17:05 300 8TH ST W 13 SUSPICIOUS PERSON
202200466779 8-11 17:04 3500 SAN PABLO RD S 63 DISPUTE
202200466771 8-11 17:03 6500 FIRESTONE RD 63 DISPUTE
202200466857 8-11 17:01 NORMANDY BLVD / GUARDIAN DR 4 AUTO CRASH
202200466858 8-11 17:01 ST AUGUSTINE/BOL 1050 TRAFFIC STOP
202282015059 8-11 16:59 600 SAILFISH DR E 19 ANIMAL INVESTIGATION
202200466850 8-11 16:59 10600 BEACH BLVD 5388 ASSAULT INVOLVING INJURY
202200466822 8-11 16:59 3300 20TH ST W 76 ASSIST OTHER AGENCY
202200466853 8-11 16:58 900 DUNN AVE 3 HIT AND RUN CRASH
202200466852 8-11 16:56 1300 RUSHING ST 63 DISPUTE
202282015058 8-11 16:56 100 15TH ST 9 THEFT
202200466716 8-11 16:56 1000 CANDLEBARK DR 3 HIT AND RUN CRASH
202200466846 8-11 16:56 1900 EAGLE BEND TER 37 UNVERIFIED 911 CALL
202200466817 8-11 16:55 2700 HAMILTON CIR 95 FRAUD/FORGED (CHECK, ID, RX)
202200466726 8-11 16:53 1000 CHAPEAU RD 27 MENTALLY ILL PERSON
202200466842 8-11 16:53 1300 12TH ST W 76 ASSIST OTHER AGENCY
202200466834 8-11 16:53 500 BAY ST E 9T THEFT (TELESERVE)
202200466844 8-11 16:52 1200 SOUTHSIDE CONNECTOR BLVD 1050 TRAFFIC STOP
202200466841 8-11 16:52 1500 LANE AVE S 9T THEFT (TELESERVE)
202200466812 8-11 16:51 6600 BARNEY RD 9T THEFT (TELESERVE)
202200466837 8-11 16:50 2000 BEAVER ST W 16 ROAD OBSTRUCTION
202200466836 8-11 16:50 4200 SOUTHSIDE BLVD 1050 TRAFFIC STOP
202200466829 8-11 16:50 100 BRADFORD LAKE CIR 54 ILLEGALLY PARKED CAR
202200466785 8-11 16:50 400 HAWAIIAN TER 63 DISPUTE
202200466769 8-11 16:49 5300 ARLINGTON EXPY 63 DISPUTE
202200466787 8-11 16:49 10100 ARROWHEAD DR 2 IMPAIRED/INTOXICATED
202200466805 8-11 16:48 9300 ATLANTIC BLVD 3 HIT AND RUN CRASH
202200466832 8-11 16:47 SOUTHSIDE BLVD / A C SKINNER PKWY 1050 TRAFFIC STOP
202200466826 8-11 16:47 11400 ARMSDALE RD 9 THEFT
202200466786 8-11 16:47 6700 103RD ST 63 DISPUTE
202200466830 8-11 16:47 PHILIPS HWY / BOWDEN RD 1050 TRAFFIC STOP
202200466828 8-11 16:46 SAN JOSE BLVD / OLD ST AUGUSTINE RD 4 AUTO CRASH
202200466800 8-11 16:45 8400 ATLANTIC BLVD 16 ROAD OBSTRUCTION
202200466816 8-11 16:45 5400 COLLINS RD 9T THEFT (TELESERVE)
202200466751 8-11 16:44 7200 CRANE AVE 63 DISPUTE
202200466774 8-11 16:44 13200 INTERNATIONAL AIRPORT BLVD 8 MISSING PERSON
202200466662 8-11 16:44 I95 EXPY N 4 AUTO CRASH
202200466528 8-11 16:44 I295 S ON RAMP / BEACH BLVD 4 AUTO CRASH
202200466820 8-11 16:41 700 LIBERTY ST N 73 DRUG INVESTIGATION
202200466819 8-11 16:41 I295 N OFF RAMP / 103RD ST 4 AUTO CRASH
202200466746 8-11 16:41 1300 RUSHING ST 63 DISPUTE
202200466809 8-11 16:40 2600 TROLLIE LN 9T THEFT (TELESERVE)
202200466815 8-11 16:40 FOURAKER RD / DELAROCHE DR 1050 TRAFFIC STOP
202200466814 8-11 16:39 HOSPITALITY LN / TREDINICK PKWY 4 AUTO CRASH
202200466813 8-11 16:39 HODGES BLVD / SUTTON PARK DR N 1 IMPAIRED/DRUNK DRIVER
202200466808 8-11 16:38 900 DILLARD RD 63 DISPUTE
202200466806 8-11 16:38 5400 SOUTH RIVER RD 95IDT IDENTITY THEFT TELESERVE
202200466807 8-11 16:37 AIRPORT CENTER DR / CITY CENTER BLVD 3 HIT AND RUN CRASH
202200466717 8-11 16:37 8400 BLANDING BLVD 63 DISPUTE
202200466773 8-11 16:35 100 MAIN ST BRG S 38 TRAFFIC ASSIGNMENT
202200466801 8-11 16:35 EDGEWOOD AVE W / LAKE PARK DR 1050 TRAFFIC STOP
202200466794 8-11 16:35 900 DUNN AVE 9 THEFT
202200466791 8-11 16:35 I95 EXPY S 4 AUTO CRASH
202200466790 8-11 16:35 2100 45TH ST W 63 DISPUTE
202200466797 8-11 16:34 7400 SOUTHSIDE BLVD 1050 TRAFFIC STOP
202200466796 8-11 16:34 EDGE/AVE B 1050 TRAFFIC STOP
202200466642 8-11 16:32 I10 E OFF RAMP / FOREST ST 91 TRAFFIC LIGHT/RR CROSSING MALFUNCTION
202200466764 8-11 16:28 WILSON BLVD / DEBRA DR W 4 AUTO CRASH
202200466778 8-11 16:28 11400 SAN JOSE BLVD 1066 CANCEL
202200466745 8-11 16:28 4500 SILVER ST 22 DOMESTIC
202200466781 8-11 16:26 UNIVERSITY BLVD S / BOOTH RD 4 53 TRAFFIC CRASH PERSON INJURED
202200466760 8-11 16:26 2800 EDISON AVE 95 FRAUD/FORGED (CHECK, ID, RX)
202200466737 8-11 16:25 1400 CESERY TER 33 DISCHARGING OF FIREARM
202200466780 8-11 16:25 SOUTHSIDE BLVD / GATE PKWY N 1050 TRAFFIC STOP
202200466777 8-11 16:24 11600 BEACH BLVD 9 THEFT
202200466754 8-11 16:24 14500 OLD ST AUGUSTINE RD 76 ASSIST OTHER AGENCY
202200466667 8-11 16:23 6200 ST AUGUSTINE RD 95 FRAUD/FORGED (CHECK, ID, RX)
202200466636 8-11 16:22 8100 BAYTREE TOWNE CIR E 21R BURGLARY RESIDENCE
202200466775 8-11 16:22 5600 CAGLE RD 73 DRUG INVESTIGATION
202200466770 8-11 16:21 14600 BEACH BLVD 4 53 TRAFFIC CRASH PERSON INJURED
202200466772 8-11 16:21 200 COAST LINE DRIVE 1050 TRAFFIC STOP
202200466720 8-11 16:20 GATE PKWY / DEERWOOD PARK BLVD 4 AUTO CRASH
202200466748 8-11 16:20 10300 BRADLEY RD 22 DOMESTIC
202200466765 8-11 16:19 7400 SOUTHSIDE BLVD 1050 TRAFFIC STOP
202200466762 8-11 16:18 6000 AVENUE B 63 DISPUTE
202200466686 8-11 16:18 11900 ATLANTIC BLVD 63 DISPUTE
202200466761 8-11 16:16 100 HART BRG N 1050 TRAFFIC STOP
202200466694 8-11 16:16 I10 AT STOCKTON ST 63 DISPUTE
202292213384 8-11 16:16 3200 NORMAN E THAGARD BLVD 27 MENTALLY ILL PERSON
202200466758 8-11 16:15 1800 ROWE AVE 12 RECKLESS DRIVER
202200466757 8-11 16:15 I295 S OFF RAMP / SAN JOSE BLVD 1050 TRAFFIC STOP
202200466756 8-11 16:15 KINGS RD / I95 N OFF RAMP 4 AUTO CRASH
202200466755 8-11 16:14 NEW BERLIN RD / YELLOW BLUFF RD 1050 TRAFFIC STOP
202200466725 8-11 16:14 3200 NORMAN E THAGARD BLVD 27 MENTALLY ILL PERSON
202200466671 8-11 16:14 KERNAN BLVD EXIT BEACH BLVD RP / BEACH BLVD EXIT KERNAN BLVD 68 CON GAME/FLIM FLAM
202200466542 8-11 16:13 5900 FT CAROLINE RD 3 HIT AND RUN CRASH
202200466750 8-11 16:13 1300 DUVAL LAKE RD S 13 SUSPICIOUS PERSON
202200466752 8-11 16:12 4700 SAN JUAN AVE 1050 TRAFFIC STOP
202282015056 8-11 16:12 11TH ST / SEMINOLE RD 1050 TRAFFIC STOP
202200466615 8-11 16:10 4200 BAYMEADOWS RD 63 DISPUTE
202200466747 8-11 16:09 8000 COLLINS RD 12 RECKLESS DRIVER
202200466711 8-11 16:08 4000 GRANT RD 27 MENTALLY ILL PERSON
202200466728 8-11 16:08 8500 LEM TURNER RD 37 UNVERIFIED 911 CALL
202200466742 8-11 16:07 7100 TYNAN AVE 18 PERSON SHOT
202200466739 8-11 16:07 8100 BLANDING BLVD 0 60 SUICIDE THREAT W/WEAPON
202200466744 8-11 16:07 PROSPECT ST / LEM TURNER RD 1050 TRAFFIC STOP
202200466743 8-11 16:07 I295 S OFF RAMP / SAN JOSE BLVD 1050 TRAFFIC STOP
202200466738 8-11 16:06 MONCRIEF RD / EDGEWOOD AVE W 1050 TRAFFIC STOP
202200466731 8-11 16:05 4600 FREDERICKSBURG AVE 7 DEAD PERSON
202200466734 8-11 16:04 DUNN AVE / I95 N OFF RAMP 16 ROAD OBSTRUCTION
202200466733 8-11 16:04 HART 1050 TRAFFIC STOP
202200466732 8-11 16:04 4400 SOUTHSIDE BLVD 1050 TRAFFIC STOP
202200466730 8-11 16:04 13200 CITY STATION DR 101 9 THEFT
202200466721 8-11 16:01 9300 103RD ST 2288 DOMESTIC DISPUTE WITH/ASSAULT
202200466672 8-11 16:00 12400 MACAW DR 29 WIRE DOWN
202200466724 8-11 16:00 I295/SAN JOSE 1050 TRAFFIC STOP